STARLINK-11187, 60184

Orbit data source: Space-Track

STARLINK-11187, 60184 is a payload satellite owned by SpaceX/Seattle (US) in LEO that was launched on Wed, 03 Jul 2024 UTC via an FALCON 9 launch vehicle from the Air Force Eastern Test Range (AFETR). Payload-class satellites include a variety of spacecraft equipped with specific instruments for various scientific and technological missions. These include communications satellites like Starlink; space stations such as the ISS; scientific satellites like the Hubble; Earth observation satellites from companies like Planet Labs, Umbra, and HawkEye 360; GPS; miniature CubeSats for education and research; and military/defense satellites.

Loading next visibility...
Identifier
60184, 2024-124B
Orbit
LEO
Last TLE update
4 hours ago
Origin
Manufacturer
SpaceX/Seattle
Mission
Operational Commercial Communications
Bus & Motor
STARLINK V2M, Unknown motor
Mass
730 kg wet, ~700 kg dry
Launch date (UTC)
2024-07-03 (1 year ago)
Launch vehicle
FALCON 9
Launch site
Air Force Eastern Test Range (AFETR)
Object type
Payload
Rocket body
Debris
Shape & HBR
Box + 2 Pan, 29 m
Radar Cross Section
36.964 m², Large (>1 m²)

Expand to show TLE details & history

TLE from 4 hours ago
0 STARLINK-11187
1 60184U 24124B   25182.11739382  .00005240  00000-0  48137-4 0  9992
2 60184  53.1586 321.2834 0000691  79.6981 280.4115 15.69676855 58202
Epoch: 2025-07-01T02:49Z
TLE epoch observation values (Epoch: 2025-07-01T02:49:02.826Z)
Latitude
0.00002°
Longitude
-0.39581°
Altitude
360.652 km
Speed
7.694 km/s
True Right ascension
21h 25m 08s
True Declination
0° 00' 00"
Sunlit
Object was in full shadow at epoch
Visualization orbit readout
Latitude
-43.95576°
Longitude
-47.20418°
Altitude
374.961 km
Speed
7.684 km/s
Apparent Right ascension
12h 21m 13s
Apparent Declination
-85° 58' 17"
Sunlit
Object is in full shadow
Visualization observer readout
Local Sidereal Time
18:46:45
Azimuth
185.248° SSW
Elevation
-40.246°
Doppler factor
1
Orbital elements
Apogee altitude
360.548 km
Perigee altitude
359.617 km
Semi-major axis
6,738.22 km
Eccentricity
0.00007
Inclination
53.1586°
RAAN
321.2834°
Arg. of periapsis
79.6981°
True anomaly
Unknown
Mean anomaly
280.4115°
Eccentric anomaly
Unknown
Mean motion
3.92397 °/min
Orbital period
91.74 mins
BSTAR
0.000048137
Loading maneuver chart data...
Loading SW <> Apogee altitude chart data...
Loading historical data...
Loading historical data...
Loading historical data...
Loading historical data...
Loading historical data...
Loading historical data...
Loading historical data...

STARLINK-11187 Visibility forecast

Observer location: undefined°, undefined°

Span
Click to sort rows by Start time (UTC) header in descending order
Start Az.
Max El. time (UTC)
Max El. Az.
Max El.
End time (UTC)
End Az.
5 mins2025-07-01 12:09:50.961Z228.416° WSW2025-07-01 12:12:50.961Z57.25° ENE44.215°2025-07-01 12:14:50.961Z50.429° ENE
4 mins2025-07-01 18:35:50.961Z328.579° NNW2025-07-01 18:37:50.961Z73.943° E35.588°2025-07-01 18:39:50.961Z113.512° SE
|